GW1942 Weather Reports


time (UTC)temp
C
wind
direction
speed
KPH
gust
KPH
rain 1hr
cm
rain 24hr
cm
rain mn
cm
humidity
%
barometer
mb
20230208161536 1 132 0.0 0.0 0.00 0.18 0.00 77 1024.7
20230208160030 1 132 1.6 8.0 0.00 0.18 0.00 76 1024.1
20230208154544 0 132 3.2 4.8 0.00 0.18 0.00 78 1024.0
20230208153025 1 132 1.6 3.2 0.00 0.18 0.00 73 1023.5
20230208151523 1 132 1.6 6.4 0.00 0.18 0.00 73 1023.1
20230208150023 1 132 3.2 8.0 0.00 0.18 0.00 74 1022.5
20230208144522 1 132 1.6 8.0 0.00 0.18 0.00 73 1022.4
20230208143021 1 132 3.2 17.7 0.00 0.18 0.00 71 1022.2
20230208141522 1 132 9.7 16.1 0.00 0.18 0.00 71 1022.4
20230208140015 1 132 8.0 12.9 0.00 0.18 0.00 75 1022.1
20230208134513 0 132 3.2 11.3 0.00 0.18 0.00 77 1021.7
20230208133011 0 132 0.0 3.2 0.00 0.18 0.00 79 1021.6
20230208131509 1 132 0.0 9.7 0.00 0.18 0.00 76 1021.5
20230208130009 0 132 3.2 11.3 0.00 0.18 0.00 80 1021.2
20230208124505 0 132 1.6 4.8 0.00 0.18 0.00 82 1020.8
20230208123008 1 132 0.0 4.8 0.00 0.18 0.00 81 1021.0
20230208121502 1 132 1.6 6.4 0.00 0.18 0.00 80 1020.8
20230208120100 1 132 1.6 8.0 0.00 0.18 0.00 79 1020.5
20230208114615 1 132 6.4 11.3 0.00 0.18 0.00 79 1020.0
20230208113101 0 132 0.0 1.6 0.00 0.18 0.00 82 1019.9
20230208111601 1 132 0.0 4.8 0.00 0.18 0.00 78 1019.7
20230208110053 1 132 3.2 19.3 0.00 0.18 0.00 78 1019.6
20230208104551 1 132 4.8 14.5 0.00 0.18 0.00 80 1019.3
20230208103049 1 132 6.4 12.9 0.00 0.18 0.00 83 1019.3
20230208101547 1 132 0.0 8.0 0.00 0.18 0.00 85 1019.0
20230208100045 1 132 6.4 16.1 0.00 0.18 0.00 87 1018.8
20230208094549 0 132 4.8 11.3 0.00 0.18 0.00 89 1018.6
20230208093045 0 132 0.0 1.6 0.00 0.18 0.00 90 1018.7
20230208091538 1 132 0.0 0.0 0.00 0.18 0.00 90 1018.4
20230208090040 1 132 0.0 0.0 0.00 0.18 0.00 90 1018.2
20230208084534 1 132 0.0 3.2 0.00 0.18 0.00 90 1018.1
20230208083034 1 132 0.0 8.0 0.00 0.18 0.00 90 1018.2
20230208081534 1 132 4.8 8.0 0.00 0.18 0.00 91 1017.6
20230208080031 1 132 1.6 6.4 0.00 0.18 0.00 91 1017.6
20230208074529 1 132 6.4 12.9 0.00 0.18 0.00 90 1017.5
20230208073027 1 132 3.2 9.7 0.00 0.18 0.00 91 1017.6
20230208071525 1 132 4.8 12.9 0.03 0.18 0.00 92 1017.3
20230208070027 1 132 1.6 8.0 0.05 0.18 0.00 93 1017.3
20230208064526 1 132 0.0 6.4 0.05 0.18 0.18 92 1017.3
20230208063028 1 132 0.0 3.2 0.05 0.18 0.18 92 1017.0
20230208061521 1 132 0.0 3.2 0.05 0.15 0.15 91 1017.4
20230208060020 1 132 1.6 6.4 0.03 0.13 0.13 91 1016.7
20230208054518 1 132 0.0 6.4 0.03 0.13 0.13 91 1017.0
20230208053019 1 132 0.0 4.8 0.03 0.13 0.13 90 1016.9
20230208051536 2 132 0.0 6.4 0.00 0.10 0.10 90 1017.2
20230208050016 2 132 0.0 4.8 0.03 0.10 0.10 89 1017.0
20230208044516 2 132 0.0 6.4 0.03 0.10 0.10 88 1017.2
20230208043019 2 132 4.8 20.9 0.03 0.10 0.10 87 1017.5
20230208041524 2 132 8.0 22.5 0.00 0.08 0.08 85 1017.9
20230208040024 3 132 8.0 24.1 0.00 0.08 0.08 85 1017.7
20230208034530 2 132 9.7 25.7 0.00 0.08 0.08 86 1017.3
20230208033018 2 133 8.0 22.5 0.00 0.08 0.08 87 1017.4
20230208031511 2 132 8.0 17.7 0.00 0.08 0.08 88 1017.5
20230208030008 2 132 11.3 17.7 0.03 0.08 0.08 89 1017.5
20230208024505 2 132 9.7 17.7 0.03 0.08 0.08 89 1017.9
20230208023003 2 132 8.0 16.1 0.05 0.08 0.08 89 1018.0
20230208021502 2 132 9.7 17.7 0.05 0.08 0.08 88 1017.9
20230208020001 2 132 8.0 16.1 0.03 0.05 0.05 86 1018.1
20230208014605 2 132 4.8 9.7 0.03 0.05 0.05 85 1018.3
20230208013058 2 131 3.2 11.3 0.00 0.03 0.03 83 1018.5
20230208011558 3 132 4.8 14.5 0.00 0.03 0.03 81 1018.6
20230208010105 3 132 9.7 17.7 0.00 0.03 0.03 80 1018.4
20230208004556 3 132 8.0 16.1 0.00 0.03 0.03 78 1018.6
20230208003055 3 132 4.8 9.7 0.00 0.03 0.03 76 1018.8
20230208001558 4 132 1.6 14.5 0.00 0.03 0.03 75 1018.7
20230208000055 4 132 9.7 19.3 0.00 0.03 0.03 73 1018.7
20230207234558 4 132 6.4 11.3 0.00 0.03 0.03 73 1018.9
20230207233056 4 132 4.8 12.9 0.00 0.03 0.03 73 1019.0
20230207231552 4 132 6.4 16.1 0.00 0.03 0.03 72 1019.2
20230207230052 4 132 8.0 20.9 0.03 0.03 0.03 77 1019.2
20230207224548 3 132 9.7 14.5 0.03 0.03 0.03 80 1019.5
20230207223047 3 132 8.0 17.7 0.03 0.03 0.03 82 1019.8
20230207221543 3 132 4.8 11.3 0.03 0.03 0.03 83 1020.4
20230207220050 3 131 9.7 22.5 0.00 0.00 0.00 81 1020.7
20230207214541 3 132 9.7 22.5 0.00 0.00 0.00 79 1020.7
20230207213040 4 132 9.7 19.3 0.00 0.00 0.00 79 1020.9
20230207211538 3 132 8.0 12.9 0.00 0.00 0.00 81 1021.1
20230207210036 4 132 6.4 12.9 0.00 0.00 0.00 81 1021.4
20230207204534 4 132 9.7 14.5 0.00 0.00 0.00 81 1021.7
20230207203039 4 132 6.4 17.7 0.00 0.00 0.00 81 1022.1
20230207201531 4 132 3.2 14.5 0.00 0.00 0.00 81 1022.2
20230207200046 4 132 9.7 19.3 0.00 0.00 0.00 79 1022.4
20230207194533 5 132 3.2 14.5 0.00 0.00 0.00 78 1022.9
20230207193031 5 132 4.8 14.5 0.00 0.00 0.00 76 1023.0
20230207191531 5 132 4.8 16.1 0.00 0.00 0.00 75 1023.2
20230207190024 5 132 8.0 12.9 0.00 0.00 0.00 74 1023.4
20230207184522 5 132 3.2 11.3 0.00 0.00 0.00 72 1023.4
20230207183020 5 132 3.2 9.7 0.00 0.00 0.00 73 1023.5
20230207181517 4 132 0.0 8.0 0.00 0.00 0.00 73 1023.6
20230207180031 4 132 0.0 8.0 0.00 0.00 0.00 73 1023.9
20230207174510 4 132 0.0 8.0 0.00 0.00 0.00 74 1023.8
20230207173008 4 132 6.4 14.5 0.00 0.00 0.00 74 1023.8
20230207171505 3 132 4.8 14.5 0.00 0.00 0.00 75 1023.8
20230207170002 3 132 6.4 14.5 0.00 0.00 0.00 76 1024.0
20230207164502 3 132 8.0 16.1 0.00 0.00 0.00 76 1024.2
20230207163101 3 132 8.0 14.5 0.00 0.00 0.00 75 1024.4